EN

Hourly Weather Bolshoe Demidkovo

Today, 18 May, Tuesday

Time Temperature Precipitation Wind Pressure Humidity
00:00 +12°C° 0 mm 2 mps 736 mmHg 91%
01:00 +12°C° 0 mm 2 mps 736 mmHg 93%
02:00 +12°C° 0 mm 2 mps 736 mmHg 95%
03:00 +12°C° 0 mm 2 mps 736 mmHg 96%
04:00 +12°C° 0 mm 2 mps 735 mmHg 96%
05:00 +12°C° 0 mm 2 mps 735 mmHg 97%
06:00 +12°C° 0 mm 3 mps 735 mmHg 92%
07:00 +13°C° 0 mm 3 mps 735 mmHg 87%
08:00 +14°C° 0 mm 3 mps 735 mmHg 83%
09:00 +16°C° 0.1 mm 3 mps 735 mmHg 78%
10:00 +17°C° 0.1 mm 4 mps 736 mmHg 73%
11:00 +18°C° 0.1 mm 4 mps 736 mmHg 68%
12:00 +18°C° 0.2 mm 4 mps 736 mmHg 67%
13:00 +18°C° 0.2 mm 4 mps 736 mmHg 66%
14:00 +18°C° 0.2 mm 4 mps 735 mmHg 66%
15:00 +18°C° 0.1 mm 4 mps 736 mmHg 66%
16:00 +18°C° 0.1 mm 4 mps 736 mmHg 66%
17:00 +18°C° 0.1 mm 4 mps 736 mmHg 67%
18:00 +15°C° 0 mm 4 mps 736 mmHg 72%
19:00 +14°C° 0 mm 3 mps 736 mmHg 78%
20:00 +12°C° 0 mm 3 mps 736 mmHg 83%
21:00 +11°C° 0 mm 3 mps 736 mmHg 86%
22:00 +10°C° 0 mm 3 mps 736 mmHg 89%
23:00 +9°C° 0 mm 2 mps 737 mmHg 92%

Tomorrow, 19 May, Wednesday

Time Temperature Precipitation Wind Pressure Humidity
00:00 +8°C° 0 mm 3 mps 737 mmHg 91%
01:00 +8°C° 0 mm 3 mps 737 mmHg 91%
02:00 +8°C° 0 mm 3 mps 737 mmHg 91%
03:00 +8°C° 0 mm 3 mps 737 mmHg 92%
04:00 +8°C° 0 mm 3 mps 737 mmHg 93%
05:00 +8°C° 0 mm 3 mps 737 mmHg 94%
06:00 +8°C° 0 mm 4 mps 737 mmHg 89%
07:00 +9°C° 0 mm 5 mps 737 mmHg 83%
08:00 +12°C° 0 mm 5 mps 738 mmHg 78%
09:00 +13°C° 0 mm 5 mps 738 mmHg 72%
10:00 +14°C° 0 mm 6 mps 738 mmHg 66%
11:00 +15°C° 0 mm 6 mps 738 mmHg 60%
12:00 +15°C° 0.1 mm 6 mps 738 mmHg 63%
13:00 +15°C° 0.1 mm 6 mps 738 mmHg 65%
14:00 +15°C° 0.1 mm 6 mps 739 mmHg 68%
15:00 +14°C° 0.2 mm 6 mps 739 mmHg 71%
16:00 +14°C° 0.2 mm 6 mps 739 mmHg 75%
17:00 +13°C° 0.2 mm 6 mps 739 mmHg 79%
18:00 +12°C° 0 mm 5 mps 740 mmHg 81%
19:00 +12°C° 0 mm 4 mps 740 mmHg 83%
20:00 +11°C° 0 mm 4 mps 740 mmHg 84%
21:00 +10°C° 0 mm 4 mps 740 mmHg 88%
22:00 +8°C° 0 mm 4 mps 741 mmHg 91%
23:00 +8°C° 0 mm 3 mps 741 mmHg 95%

Day after tomorrow, 20 May, Thursday

Time Temperature Precipitation Wind Pressure Humidity
00:00 +7°C° 0 mm 3 mps 741 mmHg 96%
01:00 +7°C° 0 mm 3 mps 741 mmHg 97%
02:00 +5°C° 0 mm 3 mps 741 mmHg 97%
03:00 +7°C° 0 mm 3 mps 741 mmHg 96%
04:00 +7°C° 0 mm 3 mps 741 mmHg 94%
05:00 +7°C° 0 mm 4 mps 741 mmHg 93%
06:00 +8°C° 0 mm 4 mps 742 mmHg 87%
07:00 +10°C° 0 mm 4 mps 742 mmHg 81%
08:00 +11°C° 0 mm 4 mps 742 mmHg 76%
09:00 +12°C° 0 mm 4 mps 742 mmHg 70%
10:00 +14°C° 0 mm 4 mps 742 mmHg 64%
11:00 +15°C° 0 mm 4 mps 742 mmHg 57%
12:00 +17°C° 0 mm 4 mps 742 mmHg 56%
13:00 +17°C° 0 mm 4 mps 742 mmHg 54%
14:00 +18°C° 0 mm 4 mps 742 mmHg 52%
15:00 +16°C° 0.1 mm 5 mps 742 mmHg 56%
16:00 +15°C° 0.1 mm 5 mps 742 mmHg 60%
17:00 +15°C° 0.1 mm 5 mps 743 mmHg 64%
18:00 +13°C° 0 mm 5 mps 743 mmHg 67%
19:00 +12°C° 0 mm 5 mps 743 mmHg 71%
20:00 +11°C° 0 mm 4 mps 743 mmHg 74%
21:00 +10°C° 0 mm 4 mps 744 mmHg 80%
22:00 +8°C° 0 mm 3 mps 744 mmHg 85%
23:00 +7°C° 0 mm 3 mps 745 mmHg 91%

21 May, Friday

Time Temperature Precipitation Wind Pressure Humidity
00:00 +5°C° 0 mm 3 mps 745 mmHg 92%
01:00 +6°C° 0 mm 2 mps 745 mmHg 93%
02:00 +5°C° 0 mm 2 mps 745 mmHg 94%
03:00 +5°C° 0 mm 2 mps 745 mmHg 92%
04:00 +4°C° 0 mm 2 mps 745 mmHg 91%
05:00 +3°C° 0 mm 3 mps 746 mmHg 89%
06:00 +5°C° 0 mm 3 mps 746 mmHg 81%
07:00 +8°C° 0 mm 3 mps 746 mmHg 74%
08:00 +10°C° 0 mm 4 mps 746 mmHg 66%
09:00 +11°C° 0 mm 4 mps 746 mmHg 62%
10:00 +12°C° 0 mm 4 mps 746 mmHg 57%
11:00 +13°C° 0 mm 4 mps 746 mmHg 53%
12:00 +14°C° 0 mm 4 mps 746 mmHg 51%
13:00 +15°C° 0 mm 4 mps 746 mmHg 49%
14:00 +17°C° 0 mm 3 mps 746 mmHg 47%
15:00 +17°C° 0 mm 3 mps 745 mmHg 50%
16:00 +16°C° 0 mm 3 mps 745 mmHg 52%
17:00 +16°C° 0 mm 3 mps 745 mmHg 55%
18:00 +15°C° 0 mm 2 mps 745 mmHg 60%
19:00 +14°C° 0 mm 2 mps 745 mmHg 65%
20:00 +12°C° 0 mm 2 mps 745 mmHg 70%
21:00 +12°C° 0 mm 2 mps 745 mmHg 71%
22:00 +10°C° 0 mm 3 mps 744 mmHg 71%
23:00 +9°C° 0 mm 3 mps 744 mmHg 71%

22 May, Saturday

Time Temperature Precipitation Wind Pressure Humidity
00:00 +10°C° 0 mm 3 mps 744 mmHg 70%
01:00 +10°C° 0 mm 4 mps 744 mmHg 68%
02:00 +10°C° 0 mm 4 mps 743 mmHg 66%
03:00 +10°C° 0 mm 4 mps 743 mmHg 69%
04:00 +9°C° 0 mm 5 mps 743 mmHg 72%
05:00 +9°C° 0 mm 5 mps 742 mmHg 75%
06:00 +10°C° 0 mm 5 mps 742 mmHg 73%
07:00 +12°C° 0 mm 5 mps 742 mmHg 72%
08:00 +13°C° 0 mm 6 mps 742 mmHg 71%
09:00 +14°C° 0 mm 6 mps 742 mmHg 65%
10:00 +16°C° 0 mm 7 mps 742 mmHg 60%
11:00 +18°C° 0 mm 7 mps 742 mmHg 54%
12:00 +18°C° 0 mm 7 mps 741 mmHg 53%
13:00 +20°C° 0 mm 7 mps 741 mmHg 52%
14:00 +21°C° 0 mm 7 mps 741 mmHg 50%
15:00 +20°C° 0 mm 7 mps 740 mmHg 54%
16:00 +19°C° 0 mm 6 mps 740 mmHg 58%
17:00 +19°C° 0 mm 6 mps 739 mmHg 61%
18:00 +17°C° 0 mm 6 mps 739 mmHg 64%
19:00 +16°C° 0 mm 6 mps 738 mmHg 66%
20:00 +15°C° 0 mm 6 mps 738 mmHg 68%
21:00 +14°C° 1.1 mm 6 mps 738 mmHg 77%
22:00 +13°C° 1.1 mm 6 mps 738 mmHg 86%
23:00 +13°C° 1.1 mm 5 mps 738 mmHg 95%

23 May, Sunday

Time Temperature Precipitation Wind Pressure Humidity
00:00 +12°C° 0.8 mm 5 mps 738 mmHg 95%
01:00 +12°C° 0.8 mm 5 mps 738 mmHg 94%
02:00 +12°C° 0.8 mm 4 mps 738 mmHg 94%
03:00 +10°C° 0.2 mm 5 mps 738 mmHg 94%
04:00 +10°C° 0.2 mm 5 mps 738 mmHg 94%
05:00 +9°C° 0.2 mm 5 mps 739 mmHg 94%
06:00 +10°C° 0 mm 5 mps 739 mmHg 89%
07:00 +10°C° 0 mm 5 mps 740 mmHg 84%
08:00 +12°C° 0 mm 5 mps 740 mmHg 79%
09:00 +13°C° 0.1 mm 6 mps 740 mmHg 74%
10:00 +14°C° 0.1 mm 6 mps 741 mmHg 68%
11:00 +15°C° 0.1 mm 6 mps 741 mmHg 62%
12:00 +15°C° 0.2 mm 6 mps 741 mmHg 63%
13:00 +15°C° 0.2 mm 6 mps 741 mmHg 64%
14:00 +15°C° 0.2 mm 6 mps 741 mmHg 64%
15:00 +15°C° 0.3 mm 6 mps 741 mmHg 67%
16:00 +15°C° 0.3 mm 6 mps 742 mmHg 69%
17:00 +14°C° 0.3 mm 5 mps 742 mmHg 71%
18:00 +13°C° 0.2 mm 4 mps 742 mmHg 77%
19:00 +12°C° 0.2 mm 4 mps 742 mmHg 82%
20:00 +11°C° 0.2 mm 3 mps 743 mmHg 87%
21:00 +10°C° 0 mm 3 mps 743 mmHg 89%
22:00 +9°C° 0 mm 3 mps 743 mmHg 91%
23:00 +9°C° 0 mm 3 mps 743 mmHg 93%
Show more

We Need Your Consent

Meteoprog and our Service Providers may store and access personal data such as cookies, device identifiers or other similar technologies on your device and process such data to personalise content and ads, as well as provide social media features and to analyse the traffic.

  • Store and/or access information on your device

    Cookies, device identifiers or other information can be stored or accessed on your device for the purposes indicated above.

  • Personalised ads and content, ad and content measurement, audience insights, and products development

    Ads and content can be personalised based on a profile. More data can be added to better personalise ads and content. Ad and content performance can be measured. Insights about the audience who saw the ads and content can be derived. Such data can be used to develop or improve user’s experience, systems and software.

By clicking ‘I Agree’ you will allow the use of indicated cookies, device identifiers, web beacons or other similar technologies. Your settings can be changed in the browser on your device.

For certain purposes, legitimate interests may be relied on, rather than consent. You can read more about this in our Privacy and Cookie Policy.